Regional Weather Roundup
Issued by NWS

Home | Current Version | Previous Version | Text Only | Print | Product List | Glossary On
Versions: 1 2 3 4 5 6 7 8 9 10 11 12 13 14 15 16 17 18 19 20 21 22 23 24 25 26 27 28 29 30 31 32 33 34 35 36 37 38 39 40 41 42 43 44 45 46 47 48 49 50
000
ASUS43 KTOP 220208
RWRKS

WEATHER ROUNDUP FOR KANSAS
NATIONAL WEATHER SERVICE GOODLAND KS
900 PM CDT WED JUN 21 2017

NOTE:  "FAIR" INDICATES FEW OR NO CLOUDS BELOW 12,000 FEET WITH NO
SIGNIFICANT WEATHER AND/OR OBSTRUCTIONS TO VISIBILITY.

KSZ001>006-013>018-027>032-041>047-220300-
NORTHWEST KANSAS

CITY           SKY/WX    TMP DP  RH WIND       PRES   REMARKS
GOODLAND       CLEAR     83  56  39 N7        29.77R
HAYS           CLOUDY    87  66  49 S21G30    29.70F
HILL CITY      PTCLDY    88  70  55 S10       29.70R
RUSSELL        MOCLDY    87  56  34 S24G31    29.70F
$$

KSZ061>065-074>080-084>089-220300-
SOUTHWEST KANSAS

CITY           SKY/WX    TMP DP  RH WIND       PRES   REMARKS
DODGE CITY     LGT RAIN  72  64  76 S17G29    29.83F
ELKHART          N/A     74  50  43 E15         N/A
GARDEN CITY    CLOUDY    67  59  75 S21       29.78R
GREAT BEND     CLOUDY    87  54  32 S16       29.77R
LIBERAL        TSTM      67  62  84 S29       29.87F
PRATT          CLOUDY    83  51  32 S14       29.80R
$$

KSZ066>073-081>083-090>101-220300-
SOUTHEAST KANSAS

CITY           SKY/WX    TMP DP  RH WIND       PRES   REMARKS
CHANUTE        CLEAR     79  66  64 SE7       29.83F
COFFEYVILLE    CLEAR     80  65  59 S8        29.83F
HUTCHINSON     CLEAR     85  53  33 S16       29.78R
MEDICINE LODGE   N/A     85  51  31 SE6       29.79R
NEWTON         CLEAR     81  61  50 S17G23    29.81R
PARSONS        CLEAR     77  67  71 CALM      29.84F
WICHITA INTL   PTCLDY    82  62  50 SE16      29.79R
WICHITA JABRA  CLEAR     81  62  52 S14       29.81R
WICHITA MCCONL CLEAR     82  61  48 S13       29.82R
WINFIELD       CLEAR     80  58  46 SE9       29.83R
$$

KSZ007>012-019>026-033>040-048>060-102>105-220300-
NORTHEAST KANSAS

CITY           SKY/WX    TMP DP  RH WIND       PRES   REMARKS
CONCORDIA      LGT RAIN  86  55  34 S15       29.72R
EMPORIA        CLEAR     80  61  52 S17       29.80S
LAWRENCE       CLEAR     79  67  66 SE8       29.79F
MANHATTAN      CLEAR     85  62  46 S12       29.76R
MARYSVILLE     CLEAR     82  59  44 S9        29.75R
OLATHE IND     CLEAR     80  64  58 S8        29.82F
OLATHE EXE     CLEAR     79  67  66 S9        29.82F
SALINA         CLEAR     89  50  26 S15       29.74R
TOPEKA BILLARD CLEAR     82  67  60 SE8       29.78F
TOPEKA FORBES  CLEAR     83  65  54 S9        29.79F
$$




USA.gov is the U.S. government's official web portal to all federal, state and local government web resources and services.